London,

12:35 PM EDT on April 26, 2017 (GMT -0400)
London

Weather History for CYXU - November, 2012

Change the Weather History Date:

Thursday, November 1, 2012

  Actual Average Record
Temperature  
Mean Temperature 40 °F -  
Max Temperature 41 °F 45 °F 68 °F (2016)
Min Temperature 39 °F 31 °F 24 °F (2010)
Degree Days  
Heating Degree Days 25    
Moisture  
Dew Point 38 °F    
Average Humidity 93    
Maximum Humidity 100    
Minimum Humidity 87    
Precipitation  
Precipitation 0.00 in 0.12 in - ()
Sea Level Pressure  
Sea Level Pressure 29.62 in    
Wind  
Wind Speed 11 mph ()    
Max Wind Speed 17 mph    
Max Gust Speed 25 mph    
Visibility 4.9 miles    
Events Rain    
Averages and records for this station are not official NWS values.
T = Trace of Precipitation, MM = Missing Value Source: Averaged Metar Reports

Daily Weather History Graph

Daily Weather History Graph

Search for Another Location

Airport or City:

Trip Planner

Search our weather history database for the weather conditions in past years. The results will help you decide how hot, cold, wet, or windy it might be!

Date:

Astronomy

Nov. 01, 2012 Rise Set
Actual Time 7:59 AM EDT 6:15 PM EDT
Civil Twilight 7:30 AM EDT 6:45 PM EDT
Nautical Twilight 6:56 AM EDT 7:19 PM EDT
Astronomical Twilight 6:23 AM EDT 7:52 PM EDT
Moon 8:08 PM EDT (11/1) 10:34 AM EDT (11/1)
Length of Visible Light 11h 15m
Length of Day
10h 16m
Waning Gibbous, 93% of the Moon is Illuminated
Nov 1
Waning Gibbous
Nov 6
Last Quarter
Nov 13
New
Nov 20
First Quarter
Nov 28
Full

Hourly Weather History & Observations

Time (EDT) Temp. Windchill Dew Point Humidity Pressure Visibility Wind Dir Wind Speed Gust Speed Precip Events Conditions
12:00 AM 41.0 °F 33.5 °F 39.2 °F 93% 29.54 in 3.0 mi WNW 13.8 mph 23.0 mph N/A Rain Light Rain
1:00 AM 41.0 °F 34.3 °F 41.0 °F 100% 29.54 in 3.0 mi WNW 11.5 mph 21.9 mph N/A Rain Light Rain
2:00 AM 41 °F - 40 °F 97% 29.55 in 2 mi WNW 12.7 mph - -  
2:00 AM 41.0 °F 34.7 °F 41.0 °F 100% 29.55 in 2.5 mi WNW 10.4 mph 21.9 mph N/A Rain Light Rain
3:00 AM 41.0 °F 34.3 °F 39.2 °F 93% 29.55 in 2.5 mi WNW 11.5 mph 18.4 mph N/A Rain Light Rain
3:24 AM 41.0 °F 34.3 °F 39.2 °F 93% 29.55 in 6.0 mi WNW 11.5 mph 20.7 mph N/A Rain Light Rain
4:00 AM 41.0 °F 34.3 °F 39.2 °F 93% 29.55 in 2.0 mi WNW 11.5 mph - N/A Rain Light Rain
4:47 AM 41.0 °F 33.1 °F 39.2 °F 93% 29.56 in 2.5 mi WNW 15.0 mph - N/A Rain Light Rain
5:00 AM 39.2 °F 30.8 °F 39.2 °F 100% 29.56 in 3.0 mi WNW 15.0 mph 23.0 mph N/A Rain Light Rain
6:00 AM 39.2 °F 32.0 °F 39.2 °F 100% 29.57 in 4.0 mi WNW 11.5 mph 20.7 mph N/A   Overcast
6:31 AM 39.2 °F 33.0 °F 39.2 °F 100% 29.58 in 2.0 mi WNW 9.2 mph 17.3 mph N/A   Light Drizzle
6:50 AM 39.2 °F 31.6 °F 39.2 °F 100% 29.58 in 1.5 mi WNW 12.7 mph - N/A   Light Drizzle
7:00 AM 39.2 °F 31.2 °F 37.4 °F 93% 29.58 in 1.5 mi WNW 13.8 mph - N/A   Light Drizzle
7:17 AM 39.2 °F 31.6 °F 37.4 °F 93% 29.58 in 2.0 mi WNW 12.7 mph 19.6 mph N/A   Light Drizzle
7:33 AM 39.2 °F 32.0 °F 37.4 °F 93% 29.59 in 4.0 mi WNW 11.5 mph 20.7 mph N/A   Light Drizzle
8:00 AM 39 °F - 38 °F 92% 29.60 in 2 mi WNW 13.8 mph - -   Overcast
8:00 AM 39.2 °F 32.0 °F 37.4 °F 93% 29.60 in 2.5 mi WNW 11.5 mph 21.9 mph N/A   Light Drizzle
9:00 AM 39.2 °F 31.6 °F 37.4 °F 93% 29.61 in 2.0 mi WNW 12.7 mph 19.6 mph N/A   Light Drizzle
9:34 AM 39.2 °F 31.6 °F 37.4 °F 93% 29.61 in 1.5 mi WNW 12.7 mph 18.4 mph N/A   Light Drizzle
10:00 AM 39.2 °F 31.6 °F 37.4 °F 93% 29.62 in 2.5 mi WNW 12.7 mph 19.6 mph N/A   Light Drizzle
11:00 AM 39.2 °F 33.0 °F 39.2 °F 100% 29.62 in 2.5 mi WNW 9.2 mph 19.6 mph N/A   Light Drizzle
12:00 PM 41.0 °F 34.3 °F 39.2 °F 93% 29.62 in 2.5 mi WNW 11.5 mph 20.7 mph N/A   Light Drizzle
12:20 PM 41.0 °F 33.9 °F 39.2 °F 93% 29.63 in 5.0 mi WNW 12.7 mph 19.6 mph N/A   Overcast
12:40 PM 41.0 °F 32.5 °F 39.2 °F 93% 29.62 in 3.0 mi West 17.3 mph - N/A Rain Light Rain Showers
1:00 PM 41.0 °F 33.9 °F 39.2 °F 93% 29.62 in 5.0 mi WNW 12.7 mph 21.9 mph N/A   Overcast
1:09 PM 41.0 °F 34.3 °F 39.2 °F 93% 29.62 in 2.5 mi WNW 11.5 mph 20.7 mph N/A   Light Drizzle
1:39 PM 41.0 °F 33.1 °F 39.2 °F 93% 29.62 in 4.0 mi WNW 15.0 mph 25.3 mph N/A   Light Drizzle
2:00 PM 41 °F - 39 °F 92% 29.62 in 3 mi WNW 15.0 mph - -   Overcast
2:00 PM 41.0 °F 33.1 °F 39.2 °F 93% 29.62 in 3.0 mi WNW 15.0 mph 25.3 mph N/A   Light Drizzle
2:36 PM 41.0 °F 33.1 °F 39.2 °F 93% 29.62 in 3.0 mi WNW 15.0 mph 23.0 mph N/A Rain Light Rain Showers
3:00 PM 41.0 °F 32.5 °F 39.2 °F 93% 29.63 in 5.0 mi West 17.3 mph 25.3 mph N/A Rain Light Rain Showers
4:00 PM 41.0 °F 33.9 °F 37.4 °F 87% 29.64 in 6.0 mi WNW 12.7 mph 18.4 mph N/A Rain Light Rain Showers
4:41 PM 41.0 °F 34.7 °F 37.4 °F 87% 29.65 in 10.0 mi WNW 10.4 mph 19.6 mph N/A   Overcast
4:53 PM 41.0 °F 34.7 °F 37.4 °F 87% 29.65 in 4.0 mi West 10.4 mph - N/A Rain Light Rain Showers
5:00 PM 41.0 °F 33.9 °F 39.2 °F 93% 29.65 in 4.0 mi West 12.7 mph - N/A Rain Light Rain Showers
6:00 PM 39.2 °F 32.5 °F 37.4 °F 93% 29.67 in 6.0 mi WNW 10.4 mph 18.4 mph N/A Rain Light Rain Showers
6:18 PM 39.2 °F 33.0 °F 37.4 °F 93% 29.68 in 10.0 mi West 9.2 mph - N/A   Overcast
6:26 PM 39.2 °F 30.5 °F 37.4 °F 93% 29.68 in 10.0 mi West 16.1 mph 25.3 mph N/A Rain Light Rain Showers
7:00 PM 39.2 °F 33.0 °F 37.4 °F 93% 29.69 in 8.0 mi West 9.2 mph 18.4 mph N/A Rain Light Rain Showers
7:33 PM 39.2 °F 33.6 °F 37.4 °F 93% 29.69 in 8.0 mi West 8.1 mph - N/A Rain Light Rain Showers
8:00 PM 39 °F - 37 °F 88% 29.70 in 12 mi West 9.2 mph - -   Overcast
8:00 PM 39.2 °F 33.6 °F 37.4 °F 93% 29.70 in 12.0 mi West 8.1 mph - N/A Rain Light Rain Showers
9:00 PM 39.2 °F 33.6 °F 35.6 °F 87% 29.70 in 15.0 mi WNW 8.1 mph - N/A Rain Light Rain Showers
10:00 PM 39.2 °F 33.0 °F 35.6 °F 87% 29.71 in 6.0 mi WNW 9.2 mph - N/A Rain Light Rain Showers
11:00 PM 39.2 °F 35.0 °F 35.6 °F 87% 29.71 in 10.0 mi WNW 5.8 mph - N/A Rain Light Rain Showers
11:28 PM 39.2 °F 35.9 °F 35.6 °F 87% 29.71 in 15.0 mi WNW 4.6 mph - N/A   Overcast